Regional Weather Roundup
Issued by NWS

Home | Current Version | Previous Version | Text Only | Print | Product List | Glossary Off
Versions: 1 2 3 4 5 6 7 8 9 10 11 12 13 14 15 16 17 18 19 20 21 22 23 24 25 26 27 28 29 30 31 32 33 34 35 36 37 38 39 40 41 42 43 44 45 46 47 48 49 50

000
ASUS45 KCYS 302110
RWRWY

WYOMING REGIONAL WEATHER ROUNDUP
NATIONAL WEATHER SERVICE CHEYENNE WY
300 PM MDT SAT AUG 30 2014

NOTE:  "FAIR" INDICATES FEW OR NO CLOUDS BELOW 12,000 FEET
WITH NO SIGNIFICANT WEATHER AND/OR OBSTRUCTIONS TO VISIBILITY.

WYZ001-302200-
YELLOWSTONE NATIONAL PARK

CITY           SKY/WX    TMP DP  RH WIND       PRES   REMARKS
LK YELLOWSTONE   N/A     40  37  89 VRB3      30.15R
W YELLOWSTONE  NOT AVBL

$$
WYZ002>013-054>058-071-098>099-302200-
NORTHERN WYOMING

CITY           SKY/WX    TMP DP  RH WIND       PRES   REMARKS
JACKSON        MOSUNNY   66  45  45 W20       29.97R
CODY           CLOUDY    55  52  88 NE8       29.91R
GREYBULL       TSTM      69  50  50 NW41G55   29.81R
WORLAND        CLOUDY    80  48  32 N8        29.74R
SHERIDAN       MOSUNNY   73  51  46 NW16      29.79F
BUFFALO        MOSUNNY   71  49  45 N17       29.82F
GILLETTE       MOSUNNY   82  50  32 N17       29.74F
HULETT         FAIR      84  50  30 MISG      29.74
NEWCASTLE      FAIR      88  43  20 MISG      29.76

$$
WYZ014>020-022>026-101>103-302200-
CENTRAL WYOMING

CITY           SKY/WX    TMP DP  RH WIND       PRES   REMARKS
BIG PINEY      CLOUDY    63  37  38 SW14      30.07F
PINEDALE       CLOUDY    63  32  31 SW20G32   30.08R
DUBOIS         FAIR      55  46  71 N9        29.97F
LANDER         CLOUDY    76  36  23 SW36G46   29.90R
RIVERTON       CLOUDY    81  28  14 W26G35    29.83F
CASPER         MOSUNNY   89  32  13 W30G36    29.82F
DOUGLAS        MOSUNNY   87  36  16 W14       29.80F

$$
WYZ021-027>030-104>119-302200-
SOUTHERN WYOMING

CITY           SKY/WX    TMP DP  RH WIND       PRES   REMARKS
EVANSTON       PTSUNNY   65  44  46 SW15G25   30.14F
KEMMERER       CLOUDY    63  36  36 SW17G25   30.12F
ROCK SPRINGS   LGT RAIN  61  45  55 S13       30.10R
DIXON          MOCLDY    74  42  31 SW15G22   30.08F
RAWLINS        LGT RAIN  66  41  40 W23G35    30.05R
LARAMIE        MOSUNNY   74  37  26 SW18      30.06F
CHEYENNE       MOSUNNY   82  41  23 S23G31    29.98F
TORRINGTON     SUNNY     90  46  21 SE9       29.80F
PINE BLUFFS    FAIR      84  37  18 S5        29.92F

$$


USA.gov is the U.S. government's official web portal to all federal, state and local government web resources and services.